Tracking 28514 objects as of 24-Feb-2024
HD Live streaming from Space Station
objects crossing your sky now

JILIN-01 GAOFEN 3D 6

Track JILIN-01 GAOFEN 3D 6 now!
10-day predictions


NORAD ID: 52391
Int'l Code: 2022-046D
Perigee: 513.7 km
Apogee: 516.0 km
Inclination: 97.5 °
Period: 94.8 minutes
Semi major axis: 6885 km
RCS: Unknown
Launch date: April 30, 2022
Source: People's Republic of China (PRC)
Launch site: Yellow Sea Launch Area, China (YSLA)
Your satellite tracking list
Your tracking list is empty




NASA's NSSDC Master Catalog

Two Line Element Set (TLE):
1 52391U 22046D   24054.82248965  .00012483  00000-0  59270-3 0  9997
2 52391  97.5162 145.4906 0001696 143.4297 216.7054 15.19383682100533
Source of the keplerian elements: AFSPC